RH
6 6 7 7 7 7 8 8 8 8 8 8 9 10 10 10 11 12 12 12 12 12 12 12 12 11 11 10 10 10 10 10 11 11 11 11 11 11 11 11 11 11 11 11 11 11 12 12 12 12 12 13 13 13 14 14 14 14 15 15 16 16 17 18 18 19 20 21 21 22 22 22 23 23 24 24 24 24 24 24 24 24 25 25 25 26 26 26 26 26 26 26 26 26 26 26 26 26 26 26 26 26 26
7 7 7 7 8 8 8 8 8 8 9 10 10 10 11 12 12 12 12 12 12 12 12 11 11 11 10 10 10 11 11 11 11 11 11 11 11 11 11 11 11 12 12 12 12 12 12 13 13 13 14 14 14 14 15 15 15 16 16 17 18 18 19 20 20 21 22 22 23 23 23 24 24 24 24 24 24 24 24 25 25 25 25 26 26 26 26 26 26 26 26 26 26 26 27 27 27 27 27 27 27 27 27
7 8 8 8 8 8 8 8 9 10 10 10 11 12 12 12 12 12 12 12 12 12 12 11 11 11 11 11 11 11 11 11 11 11 11 11 11 11 12 12 12 12 12 13 13 13 14 14 14 14 14 15 15 15 16 16 17 17 18 19 20 20 21 22 22 23 23 24 24 24 24 24 24 24 24 24 25 25 25 25 26 26 26 26 26 26 26 26 26 26 27 27 27 27 27 27 28 28 28 28 28 28 28
8 8 8 8 8 8 8 9 10 10 10 11 12 12 12 13 13 12 12 12 12 12 11 11 11 11 11 11 11 11 11 11 11 11 11 11 12 12 12 12 13 13 14 14 14 14 15 15 15 15 16 16 16 16 17 18 18 19 20 21 22 22 23 23 24 24 24 24 24 24 24 24 24 25 25 26 26 26 26 26 26 26 26 26 26 26 27 27 27 27 28 28 28 28 28 28 28 28 28 28 29 29 29
8 8 8 8 8 8 9 10 10 11 11 12 12 12 13 13 13 12 12 12 12 12 12 12 12 12 12 12 12 12 12 11 11 11 12 12 12 13 13 14 14 14 15 15 15 16 16 16 16 16 16 16 17 18 18 19 20 21 22 23 23 24 24 24 24 24 25 25 25 25 25 26 26 26 26 26 26 26 26 26 27 27 27 27 28 28 28 28 28 29 29 29 29 29 29 29 30 30 30 30 30 30 30
8 8 8 8 8 9 10 10 11 11 12 12 12 13 13 13 13 13 12 12 12 12 12 12 12 12 12 12 12 12 11 12 12 12 12 13 14 14 15 15 16 16 16 16 16 16 16 16 17 17 17 17 18 19 20 21 22 23 24 24 24 24 24 25 25 26 26 26 26 26 26 26 26 26 26 27 27 27 27 28 28 28 28 29 29 29 30 30 30 30 30 30 30 30 30 30 31 31 31 31 31 31 31
8 8 8 9 9 10 10 11 11 12 12 12 13 13 13 13 13 13 13 13 12 12 12 12 12 12 12 12 12 12 12 12 12 13 14 14 15 16 16 16 16 17 17 17 17 17 17 17 17 18 18 18 19 20 21 22 24 24 24 25 25 25 26 26 26 26 26 26 26 26 26 27 27 27 27 28 28 28 29 29 29 30 30 30 30 31 31 31 31 32 32 32 32 32 32 32 32 32 32 32 32 32 32
8 8 9 10 10 10 11 11 12 12 13 13 13 13 13 13 13 13 13 13 13 13 13 13 12 12 12 12 12 12 12 13 14 15 15 16 16 17 17 17 17 17 17 17 17 18 18 18 18 18 19 20 21 22 23 24 24 25 26 26 26 26 26 26 26 26 26 27 27 27 27 28 28 28 28 29 29 30 30 30 30 31 31 32 32 32 32 32 32 33 33 33 33 33 33 33 33 33 33 34 34 33 33
9 9 10 10 10 11 12 12 12 13 13 13 13 13 13 13 13 13 14 14 13 13 13 13 12 12 12 12 12 13 14 14 16 16 17 17 18 18 18 18 18 18 18 18 18 18 18 18 19 20 20 21 22 23 24 24 26 26 26 26 26 26 27 27 27 27 28 28 28 28 28 29 29 30 30 30 30 31 31 32 32 32 32 33 33 33 33 34 34 34 34 34 34 34 34 34 35 35 35 35 35 35 35
9 10 10 10 11 12 12 12 13 13 14 14 14 14 14 14 14 14 14 14 14 14 13 13 13 12 12 13 13 14 15 16 17 18 18 18 18 18 18 18 18 18 18 18 18 18 19 19 20 21 22 22 23 24 25 26 26 26 26 26 27 27 28 28 28 28 28 29 29 29 30 30 30 31 31 31 32 32 32 33 33 33 34 34 34 34 34 34 35 35 35 35 35 36 36 36 36 36 36 36 36 36 36
10 10 10 11 11 12 12 13 13 14 14 14 14 14 14 14 14 14 14 14 14 14 14 13 13 13 13 14 15 16 17 17 18 18 18 18 18 18 19 19 19 19 19 19 19 19 20 20 21 22 23 24 24 25 26 26 26 26 27 27 28 28 28 29 29 29 29 30 30 30 30 31 31 32 32 32 33 33 34 34 34 34 34 35 35 35 36 36 36 36 36 36 36 36 37 37 37 37 37 37 37 37 37
10 10 10 11 12 12 13 13 14 14 14 14 14 14 14 14 14 14 14 14 14 14 14 14 14 14 14 15 16 17 18 18 19 19 19 19 19 19 19 19 19 19 20 20 20 20 21 21 22 23 24 24 25 26 26 26 27 27 28 28 28 29 29 29 30 30 30 30 31 31 32 32 32 33 33 34 34 34 34 35 35 35 36 36 36 36 37 37 37 37 37 38 38 38 38 38 38 38 38 38 38 38 38
10 10 11 12 12 13 13 14 14 14 14 14 14 14 14 14 15 15 15 15 14 14 14 14 14 14 15 16 17 18 19 19 19 19 19 20 20 20 20 20 20 20 20 20 21 21 22 22 23 24 24 26 26 26 26 27 28 28 28 29 29 29 30 30 30 31 31 32 32 32 33 33 34 34 34 34 35 35 36 36 36 36 37 37 37 38 38 38 38 38 38 38 38 39 39 39 39 39 39 39 39 39 39
10 11 11 12 12 13 13 14 14 14 14 14 14 14 14 15 15 15 15 15 15 15 14 14 15 16 16 18 18 19 20 20 20 20 20 20 20 20 20 20 20 21 21 21 22 22 23 24 24 24 26 26 26 27 27 28 28 28 29 29 30 30 30 30 31 31 32 32 32 33 34 34 34 35 35 35 36 36 36 37 37 37 38 38 38 38 38 38 39 39 39 39 39 39 39 39 39 39 39 39 39 39 39
10 11 12 12 13 13 14 14 14 15 15 15 15 15 15 15 15 16 16 15 15 15 15 15 16 17 18 19 19 20 20 20 20 20 20 20 21 21 21 21 21 21 22 22 23 23 24 24 25 26 26 27 27 28 28 28 28 29 30 30 30 30 31 31 31 32 32 32 33 33 34 34 35 35 36 36 36 36 37 37 37 38 38 38 38 38 38 39 39 39 39 39 39 39 39 38 38 38 38 38 38 38 38
11 12 12 13 13 14 14 14 15 15 15 15 15 15 15 15 16 16 16 16 16 16 16 16 17 18 19 20 20 20 21 21 21 21 21 21 21 21 22 22 22 22 22 23 23 24 24 25 26 26 27 27 28 28 28 29 29 30 30 30 31 31 31 31 32 32 32 33 33 33 34 34 35 35 35 36 36 36 36 37 37 37 37 38 38 38 38 38 38 38 38 38 37 37 37 37 37 37 36 36 36 36 36
11 12 12 13 13 14 14 15 15 15 16 16 16 16 16 16 16 16 16 16 16 16 16 17 18 18 20 20 21 21 21 21 21 21 22 22 22 22 22 22 22 23 23 24 24 24 24 25 26 26 27 28 28 28 29 29 30 30 30 31 31 32 32 32 32 32 32 33 33 34 34 34 34 35 35 35 36 36 36 36 36 36 36 37 37 37 37 36 36 36 36 36 36 35 35 35 35 35 34 34 34 34 34
12 12 13 13 14 14 14 15 15 16 16 16 16 16 16 16 16 16 16 16 16 16 17 18 18 19 20 21 21 22 22 22 22 22 22 22 22 22 22 23 23 23 24 24 24 24 25 26 26 27 27 28 28 29 29 30 30 30 31 31 32 32 32 32 33 33 33 33 34 34 34 34 35 35 35 35 36 36 36 36 36 36 36 36 36 36 36 36 36 35 35 34 34 34 34 34 33 33 33 33 33 33 33
12 12 13 14 14 14 15 15 16 16 16 16 16 16 16 16 16 16 17 16 16 17 17 18 19 20 21 21 22 22 22 22 22 22 22 22 22 23 23 23 24 24 24 24 24 25 26 26 26 27 28 28 28 29 30 30 30 31 31 32 32 32 32 33 33 33 34 34 34 34 34 35 35 35 36 36 36 36 36 36 36 36 36 36 36 36 36 35 35 34 34 34 34 33 33 33 33 33 33 33 33 33 33
12 12 13 14 14 14 15 15 16 16 17 17 17 17 17 17 17 17 17 17 17 17 18 18 20 20 21 22 22 22 22 22 22 23 23 23 23 23 24 24 24 24 24 24 25 26 26 26 26 27 28 28 28 29 30 30 30 31 31 32 32 32 32 33 33 34 34 34 34 35 35 35 36 36 36 36 36 36 37 37 37 37 36 36 36 36 35 35 34 34 34 33 33 33 33 33 33 33 33 33 34 34 34
12 12 13 14 14 14 15 16 16 16 17 17 18 18 18 17 17 17 17 17 17 18 18 19 20 21 22 22 22 23 23 23 23 23 23 23 24 24 24 24 24 24 25 25 26 26 26 26 26 27 28 28 28 29 30 30 30 31 31 32 32 32 33 33 33 34 34 34 35 35 35 36 36 36 36 37 37 37 37 37 37 36 36 36 35 35 34 34 33 33 33 32 32 32 33 33 33 34 34 35 35 36 36
12 13 13 14 14 15 15 16 16 17 17 18 18 18 18 18 18 18 18 18 18 18 18 20 20 22 22 22 23 23 23 23 23 23 24 24 24 24 24 24 24 24 25 26 26 26 26 26 27 27 28 28 28 29 30 30 30 31 31 32 32 32 33 33 34 34 34 35 35 35 36 36 36 36 37 37 37 37 37 36 36 36 35 34 34 34 33 33 32 32 32 32 32 33 33 34 34 35 36 37 38 39 40
12 13 13 14 14 15 15 16 16 17 17 18 18 18 18 18 18 18 18 18 18 18 19 20 21 22 22 22 23 23 23 23 23 24 24 24 24 24 24 24 24 25 26 26 26 26 26 27 27 28 28 28 29 29 30 30 31 31 32 32 32 33 33 34 34 34 35 35 35 36 36 36 36 37 37 37 37 36 36 36 35 34 34 33 32 32 32 32 32 32 32 33 33 34 35 36 37 38 39 40 41 42 43
12 13 14 14 14 15 16 16 16 17 18 18 18 19 19 19 19 19 18 18 18 18 19 20 20 22 22 23 23 23 24 24 24 24 24 24 24 24 24 24 25 26 26 26 26 26 27 27 28 28 28 29 29 30 30 31 31 32 32 33 33 34 34 34 35 35 35 36 36 36 36 36 36 36 36 36 36 35 34 34 33 32 32 32 31 31 32 32 32 33 34 35 36 36 38 39 40 41 42 43 44 45 46
12 13 14 14 14 15 16 16 16 17 18 18 19 19 20 20 20 20 19 19 19 19 19 20 20 21 22 23 23 24 24 24 24 24 24 24 24 24 25 25 26 26 26 26 26 27 27 28 28 28 29 29 30 30 31 32 32 32 33 34 34 34 35 35 35 35 36 36 36 36 36 36 36 36 35 35 34 33 32 32 31 31 30 30 31 32 32 34 35 36 37 38 39 40 40 42 43 44 45 46 47 48 48
13 13 14 14 14 15 15 16 16 17 18 18 19 19 20 20 20 20 20 20 20 20 20 20 20 21 22 23 23 24 24 24 24 24 24 25 25 26 26 26 26 26 26 26 27 27 28 28 28 29 30 30 30 31 32 32 33 33 34 34 34 34 35 35 35 35 35 35 35 35 35 35 34 34 34 33 32 31 30 30 30 30 30 30 32 33 35 36 38 39 40 41 42 42 43 44 44 46 46 47 48 49 50
13 13 14 14 14 15 15 16 16 17 18 18 19 20 20 20 21 21 21 21 21 20 20 20 20 21 22 22 23 24 24 24 24 25 25 26 26 26 26 26 26 26 27 27 28 28 28 29 29 30 30 30 31 32 32 32 33 34 34 34 34 34 34 34 34 34 34 34 34 34 34 33 33 32 32 31 30 30 29 29 29 29 30 32 33 36 38 40 41 42 43 43 44 44 44 45 45 46 47 48 49 50 51
13 14 14 14 14 15 15 16 16 17 18 18 19 20 20 20 21 21 22 22 22 22 21 21 21 21 22 22 23 23 24 24 24 25 26 26 26 26 26 26 27 27 27 28 28 28 29 29 30 30 30 31 31 32 32 32 33 33 33 33 34 34 34 33 33 33 33 33 32 32 32 31 31 30 30 29 28 28 28 28 29 30 31 34 36 38 40 42 43 44 45 45 45 45 45 45 46 46 47 49 50 52 54
13 14 14 14 14 14 15 16 16 17 17 18 19 19 20 20 21 21 22 22 22 22 22 22 22 22 22 22 23 23 23 24 24 24 25 26 26 26 26 26 27 27 27 28 28 28 28 29 29 30 30 30 31 31 32 32 32 32 32 32 32 32 32 32 32 32 31 31 31 30 30 29 29 28 28 28 28 28 28 29 30 31 33 36 38 40 42 44 44 45 46 46 46 46 46 46 46 48 49 51 53 55 57
13 14 14 14 14 14 15 15 16 16 17 18 18 19 19 20 20 21 22 22 22 23 23 23 23 23 23 23 23 23 24 24 24 24 24 25 26 26 26 26 26 27 27 27 28 28 28 28 28 29 29 30 30 30 30 30 31 31 31 31 31 31 30 30 30 30 30 29 29 28 28 28 28 27 27 27 28 28 29 30 32 33 35 38 40 42 43 44 45 46 46 46 46 46 46 47 48 49 51 53 55 58 60
14 14 14 14 14 14 15 15 16 16 16 17 18 18 18 19 20 20 21 22 22 23 24 24 24 24 24 24 24 24 24 24 24 24 24 25 26 26 26 26 26 26 26 27 27 27 28 28 28 28 28 29 29 29 29 30 30 30 30 30 30 30 29 29 29 29 28 28 28 28 27 27 27 27 28 28 29 30 31 32 34 35 37 38 40 41 42 44 45 46 46 46 46 46 47 48 49 51 53 55 57 59 61
14 14 14 14 14 14 15 15 15 16 16 16 17 18 18 18 19 20 20 21 22 22 23 24 24 24 24 25 25 25 25 25 25 26 26 26 26 26 26 26 26 26 26 27 27 27 28 28 28 28 28 28 28 29 29 29 29 29 29 29 29 29 29 28 28 28 28 28 27 27 27 27 28 28 29 30 31 32 34 35 36 37 38 39 39 40 41 43 45 46 47 48 47 47 48 48 50 51 53 55 56 58 60
14 14 14 14 15 15 15 15 15 15 16 16 16 17 17 18 18 19 20 20 21 22 22 23 23 24 24 24 25 26 26 26 26 26 26 26 26 26 26 26 26 26 27 27 27 27 27 28 28 28 28 28 28 28 29 29 29 29 29 29 28 28 28 28 28 28 27 27 27 27 27 28 28 30 31 32 34 35 36 38 38 38 39 39 39 40 42 43 45 46 48 48 48 49 49 50 50 52 53 54 56 56 57
14 14 14 15 15 15 15 15 15 15 16 16 16 17 17 18 18 18 19 20 20 21 21 22 23 23 24 24 24 25 25 26 26 26 26 26 26 26 26 26 27 27 27 27 27 27 27 27 28 28 28 28 28 28 28 28 28 28 28 28 28 28 28 27 27 27 26 26 26 27 27 28 30 31 33 34 36 37 38 38 39 39 39 39 40 41 42 44 46 47 48 49 50 50 50 50 52 52 54 55 56 56 57
14 14 15 15 15 15 15 15 15 15 16 16 16 16 17 17 18 18 18 19 19 20 20 21 22 22 23 23 24 24 24 24 24 25 26 26 26 26 26 26 26 26 27 27 27 27 27 27 27 27 28 28 28 28 28 28 28 28 28 28 27 27 27 27 26 26 26 26 26 27 28 29 31 32 34 35 36 37 37 38 38 38 38 39 40 41 43 44 46 48 49 50 50 50 50 51 52 53 54 56 56 57 58
15 15 15 15 15 15 15 15 15 16 16 16 16 16 17 17 17 18 18 18 18 19 19 20 20 21 21 22 22 23 23 23 24 24 24 25 25 26 26 26 26 26 26 26 26 26 27 27 27 27 27 27 27 27 27 27 27 27 27 27 27 26 26 26 26 26 26 26 27 28 29 30 32 33 34 35 36 36 36 37 37 38 39 40 41 42 44 46 47 48 49 50 50 50 51 51 52 52 53 54 55 56 57
15 15 15 15 15 16 16 16 16 16 16 16 16 17 17 17 17 17 18 18 18 18 18 19 19 20 20 20 20 21 22 22 22 23 23 24 24 24 24 24 25 25 26 26 26 26 26 26 26 26 26 26 26 26 26 26 26 26 26 26 26 26 26 26 26 26 26 27 28 29 30 31 32 33 34 35 35 36 36 37 38 39 40 42 43 45 46 48 49 49 50 50 50 50 50 50 51 51 52 52 53 54 56
15 15 15 16 16 16 16 16 16 16 16 16 17 17 17 17 17 17 18 18 18 18 18 18 18 19 19 19 20 20 20 20 21 21 22 22 23 23 23 24 24 24 24 24 24 24 24 24 24 24 24 24 25 25 26 26 26 26 26 26 26 26 26 26 26 26 27 28 29 30 32 32 33 34 34 35 36 37 38 39 40 42 43 45 47 48 50 50 50 50 50 50 49 49 49 49 50 50 50 51 52 52 53
15 15 16 16 16 16 16 16 16 16 16 17 17 17 17 17 18 18 18 18 18 18 18 18 18 18 18 19 19 19 20 20 20 20 21 21 22 22 22 22 22 22 22 23 23 23 23 23 23 24 24 24 24 24 24 24 25 25 25 25 26 26 26 27 27 28 29 30 32 33 34 34 35 35 36 36 37 38 40 42 43 45 47 48 50 51 51 51 50 49 48 48 47 47 47 48 48 48 49 50 50 51 51
15 16 16 16 16 16 16 16 16 17 17 17 17 17 18 18 18 18 18 18 18 18 18 18 18 18 18 19 19 19 19 19 20 20 20 20 21 21 21 21 21 21 21 22 22 22 22 22 22 22 23 23 24 24 24 24 25 25 26 26 26 27 28 29 30 31 32 34 35 36 36 36 36 36 37 38 38 40 42 43 45 47 49 50 51 51 50 49 48 47 46 46 46 46 46 46 46 47 47 48 49 49 50
16 16 16 16 16 16 16 17 17 17 17 18 18 18 18 18 18 18 18 18 18 18 18 18 18 19 19 19 19 19 19 19 19 20 20 20 20 20 20 20 21 21 21 21 21 21 21 21 22 22 23 24 24 24 25 26 26 26 27 28 29 30 31 32 34 35 36 37 38 39 39 39 38 38 38 39 40 41 43 45 46 48 49 49 48 48 46 45 44 44 44 44 44 44 44 44 45 45 45 45 45 46 46
16 16 16 16 16 17 17 17 18 18 18 18 19 19 19 19 19 19 19 19 19 19 19 19 19 19 20 20 20 20 20 20 20 20 20 20 20 20 20 20 20 20 21 21 21 21 21 22 22 23 24 24 25 26 26 26 27 28 30 32 33 34 35 36 38 39 40 40 41 41 40 40 39 39 39 39 40 42 43 44 46 46 46 45 44 44 43 42 42 42 42 42 42 42 42 42 42 42 42 42 42 41 41
16 16 16 16 17 17 17 18 18 18 19 19 20 20 20 20 20 20 20 20 20 20 20 20 20 20 20 20 20 20 20 20 20 20 20 20 20 20 20 20 20 20 21 21 21 21 22 22 23 24 24 26 26 27 28 29 30 32 34 36 37 38 39 40 41 42 43 43 43 42 41 40 39 38 38 39 40 42 42 43 43 43 42 42 42 42 41 41 40 40 40 40 40 40 39 39 38 38 37 36 36 35 34
16 16 17 17 17 18 18 18 19 20 20 20 20 20 21 21 21 21 21 21 20 20 20 20 20 20 20 20 21 21 21 21 21 21 21 21 21 21 21 21 21 21 22 22 22 23 24 24 25 26 26 28 28 29 30 32 34 36 38 40 42 42 43 44 44 45 45 44 43 42 40 38 38 37 38 39 40 41 42 42 42 41 40 40 40 40 40 39 39 38 38 37 36 36 35 34 33 32 31 30 30 29 28
17 17 18 18 18 18 19 20 20 20 21 21 21 21 21 21 22 22 22 21 21 21 21 21 21 21 21 21 21 21 21 21 21 21 21 21 21 21 22 22 22 22 22 23 24 24 25 26 27 28 29 30 32 32 34 36 38 40 42 44 45 46 46 46 46 46 45 43 41 39 37 36 36 36 38 39 40 40 40 40 40 40 39 39 38 38 37 36 36 35 34 33 32 31 30 29 28 27 26 26 24 24 23
18 18 18 19 19 20 20 20 21 21 21 21 21 21 22 22 22 22 22 22 22 22 22 22 22 21 21 21 21 21 21 21 21 21 21 22 22 22 22 22 22 23 24 24 26 26 27 28 29 31 32 34 35 36 37 40 42 44 46 47 47 47 47 46 45 44 42 40 38 36 35 35 36 36 38 38 39 39 39 39 38 38 37 36 36 35 34 33 32 31 30 29 28 27 26 26 24 24 24 23 23 22 22
18 19 19 20 20 20 21 21 21 22 22 22 22 22 22 22 22 22 22 22 22 22 22 22 22 21 21 21 21 21 21 21 21 22 22 22 22 22 23 23 24 24 25 26 27 27 28 30 31 33 35 36 37 39 40 43 45 46 46 45 44 44 43 42 42 40 39 37 36 34 34 34 35 36 36 37 37 36 36 36 36 35 34 33 32 32 30 30 28 28 27 26 26 25 24 24 24 24 23 23 23 23 22
19 20 20 20 21 21 22 22 22 22 22 22 22 22 22 22 22 22 22 22 22 22 22 21 21 21 21 21 21 21 21 21 21 22 22 22 22 23 23 24 25 26 27 28 29 29 30 31 33 34 36 38 39 40 42 43 43 42 42 40 39 38 38 38 38 37 36 34 34 33 32 33 34 34 34 34 34 34 34 33 33 32 31 30 30 29 28 27 26 26 26 25 25 24 24 24 24 24 24 24 24 24 23
20 20 21 21 22 22 22 22 22 22 22 22 22 22 22 23 23 23 23 22 22 22 22 22 22 22 22 22 22 22 22 22 22 22 22 22 22 22 23 26 28 30 32 34 34 34 33 33 34 35 36 37 38 38 38 38 37 36 34 34 34 35 36 36 36 34 34 32 32 31 31 32 32 33 33 33 32 32 32 31 30 30 29 28 28 27 26 26 26 26 26 26 26 25 25 25 24 24 24 24 24 24 23
20 21 21 22 22 22 22 22 22 22 22 22 22 23 23 23 23 23 23 23 23 23 22 22 22 22 22 23 23 23 23 23 23 23 23 22 22 22 23 24 28 32 36 40 40 39 36 34 34 33 34 33 33 32 32 31 30 30 31 32 32 33 34 34 33 32 32 31 30 30 31 31 31 32 32 31 31 30 30 29 28 28 28 27 27 26 26 26 26 26 26 26 26 25 24 24 24 24 24 23 23 22 22
21 21 21 22 22 22 22 22 22 22 22 22 23 23 23 24 24 24 24 23 23 23 23 24 24 24 24 24 24 24 24 24 24 24 23 22 22 23 24 24 26 28 33 38 39 38 34 32 31 30 30 29 28 27 27 27 28 28 29 30 31 32 32 32 32 31 30 30 30 30 30 30 31 31 31 30 30 29 28 28 28 27 27 26 26 26 26 26 26 26 25 24 24 24 23 23 22 22 22 21 20 20 19
21 21 21 22 22 22 22 22 22 22 22 23 23 23 24 24 24 24 24 24 24 24 24 24 24 24 24 25 25 25 24 24 24 24 24 24 23 23 24 24 24 25 26 28 30 30 28 27 27 27 27 26 25 24 26 26 27 28 29 30 31 31 31 31 31 30 30 30 30 30 30 30 30 30 30 29 28 28 28 27 27 27 26 26 26 26 26 25 24 24 23 23 22 22 21 20 20 19 18 18 17 16 15
21 21 21 21 21 22 22 22 22 23 23 23 24 24 24 24 24 24 24 24 24 24 24 24 25 26 26 26 26 26 26 26 25 25 26 24 24 24 24 24 24 24 23 23 23 23 23 22 22 22 24 24 24 24 25 26 28 29 30 31 31 32 31 31 31 30 30 30 30 30 30 30 30 29 29 28 28 28 27 27 27 26 26 26 26 24 24 23 22 22 21 20 20 19 18 17 16 15 14 13 12 11 10
21 21 21 21 21 21 22 22 22 23 24 24 24 24 24 25 26 26 26 26 25 25 25 25 26 26 26 26 27 28 28 27 27 27 28 27 28 28 28 26 24 24 23 23 23 22 20 20 20 20 22 23 24 25 26 27 29 30 31 32 32 32 32 32 32 31 30 30 30 30 30 30 29 29 28 28 28 27 27 27 26 26 26 24 24 23 22 21 20 19 18 17 16 15 14 12 11 10 9 8 7 6 5
20 21 21 21 21 21 21 22 22 23 24 24 24 25 25 26 26 26 26 26 25 25 26 26 26 26 26 26 27 28 29 29 29 30 31 30 32 35 36 31 27 24 23 23 22 22 21 21 20 20 22 24 26 27 28 29 30 32 32 33 33 33 33 32 32 32 31 31 30 30 30 29 28 28 28 28 27 27 27 26 26 25 24 23 22 21 20 18 17 16 15 13 12 10 9 8 7 6 5 4 4 3 3
20 20 21 21 21 21 21 22 22 23 24 25 25 26 26 26 26 26 26 26 25 25 26 26 26 26 26 26 26 27 28 30 30 30 32 35 36 36 36 34 31 28 24 24 23 23 22 22 21 21 22 25 27 28 30 31 32 32 33 34 34 34 34 33 32 32 31 31 30 30 29 28 28 28 28 27 27 26 26 26 24 24 22 21 20 18 17 16 14 12 11 9 8 6 5 4 4 3 3 3 3 3 3
20 20 20 20 20 20 20 21 22 23 24 25 26 26 26 26 26 26 26 26 26 26 26 26 27 26 26 26 26 28 29 30 30 30 32 38 38 36 34 33 32 30 30 28 26 24 24 23 23 23 23 25 27 29 30 32 32 33 34 34 34 34 34 33 32 32 31 30 30 29 29 28 28 28 27 27 26 26 24 24 22 21 20 18 17 15 14 12 10 8 7 6 5 4 3 3 3 3 3 3 3 4 4
19 20 20 20 20 20 20 21 22 24 24 26 26 26 26 26 26 26 26 26 26 26 26 26 26 26 26 25 26 29 30 31 30 30 32 36 36 35 33 31 30 29 28 28 27 26 26 24 24 25 24 25 26 28 30 32 33 34 34 34 34 34 33 33 32 32 31 30 30 29 28 28 28 27 26 26 25 24 23 21 20 18 17 15 14 12 10 8 7 6 4 4 3 3 3 3 3 3 4 4 4 4 5
19 19 19 19 19 20 20 22 23 24 24 26 26 26 26 26 26 26 26 26 26 26 26 24 24 26 26 26 28 31 32 31 31 32 36 36 34 32 31 30 29 29 28 28 27 27 27 27 27 27 27 26 26 27 30 32 33 34 34 34 34 34 33 32 32 31 30 30 29 29 28 28 27 26 26 24 23 22 20 19 17 15 14 12 10 8 7 6 4 4 3 3 3 3 3 3 3 4 4 4 5 5 6
18 18 18 19 20 20 21 22 23 24 25 26 26 26 26 26 26 26 26 26 26 26 26 25 26 26 27 28 30 33 34 32 33 36 40 36 32 30 30 30 29 29 28 28 28 28 29 29 30 30 30 29 28 28 29 31 32 34 34 34 33 33 33 32 31 30 30 30 29 28 28 27 26 24 24 22 20 19 18 16 14 12 10 8 7 6 5 4 3 3 3 3 3 3 3 4 4 4 4 5 5 6 6
18 18 18 19 20 21 22 22 24 24 26 26 26 26 26 26 26 26 26 24 24 26 31 30 29 30 30 30 31 33 34 35 37 40 41 35 30 28 29 29 28 28 28 28 29 30 30 30 30 31 32 31 30 30 30 30 32 33 33 33 33 32 32 31 31 30 30 29 28 27 26 26 24 23 21 20 18 16 15 13 11 9 8 6 5 4 4 3 3 3 3 3 3 3 4 4 4 4 5 5 6 6 7
Wind_Speed
4 4 4 4 4 4 4 4 4 4 5 5 5 5 5 5 5 5 6 6 6 6 7 7 7 7 7 7 7 7 7 7 7 7 7 8 8 8 8 8 9 9 9 9 9 9 9 9 9 8 8 8 8 8 8 8 8 9 9 9 9 9 9 9 9 10 10 10 10 10 11 11 11 11 12 12 12 12 12 12 13 13 13 13 13 13 13 13 13 14 14 14 14 14 14 14 14 15 15 15 15 15 16
4 4 4 4 4 4 4 4 4 4 4 5 5 5 5 5 6 6 6 6 7 7 7 7 7 7 7 7 7 7 7 7 7 7 8 8 8 8 9 9 9 9 9 9 9 9 8 8 8 8 8 8 8 8 8 8 9 9 9 9 9 9 9 9 10 10 10 10 10 11 11 11 11 11 12 12 12 12 12 12 12 12 12 12 13 13 13 13 13 13 13 14 14 14 14 14 14 15 15 15 15 15 16
4 4 4 4 4 4 4 4 4 4 5 5 5 5 5 6 6 6 7 7 7 7 7 7 7 7 7 7 7 7 7 7 7 8 8 8 8 8 8 8 9 9 9 9 8 8 8 8 8 8 8 8 8 8 8 8 9 9 9 9 9 9 9 9 10 10 10 10 11 11 11 11 11 11 12 12 12 12 12 12 12 12 12 12 12 12 13 13 13 13 13 13 14 14 14 14 14 15 15 15 15 15 16
4 4 4 4 4 4 4 4 4 4 5 5 5 5 5 6 6 6 7 7 7 7 7 7 7 7 7 7 7 7 7 7 7 8 8 8 8 8 8 8 8 8 8 8 8 8 8 8 8 8 8 7 7 8 8 8 9 9 9 9 9 9 9 10 10 10 10 11 11 11 11 11 11 11 11 11 11 11 11 12 12 12 12 12 12 12 13 13 13 13 13 14 14 14 14 14 15 15 15 15 15 15 16
4 4 4 4 4 4 4 4 4 4 5 5 5 5 6 6 6 7 7 7 7 7 7 7 7 7 7 7 7 7 7 7 7 7 8 8 8 8 8 8 8 8 8 8 8 8 8 8 7 7 7 7 7 8 8 8 8 9 9 9 9 9 10 10 10 10 11 11 11 11 11 11 11 11 11 11 11 11 11 12 12 12 12 12 12 12 13 13 13 13 13 14 14 14 14 15 15 15 15 15 16 16 16
4 4 4 4 4 4 4 4 4 4 5 5 5 6 6 6 6 7 7 7 7 7 7 7 7 7 7 7 7 7 7 7 7 7 7 7 7 7 7 7 8 8 8 7 7 7 7 7 7 7 7 7 7 7 8 8 8 9 9 9 9 10 10 10 11 11 11 11 11 11 11 11 11 11 11 11 11 11 11 11 12 12 12 12 12 12 13 13 13 13 14 14 14 14 15 15 15 15 15 16 16 16 16
4 4 4 4 4 4 4 4 4 5 5 5 5 6 6 6 6 7 7 7 7 7 7 7 7 7 7 7 7 7 7 7 7 7 7 7 7 7 7 7 7 7 7 7 7 7 7 7 7 6 6 7 7 7 8 8 8 9 9 9 9 10 10 10 11 11 11 11 11 11 11 11 11 11 11 11 11 11 11 12 12 12 12 12 12 12 13 13 13 13 14 14 14 14 15 15 15 16 16 16 16 17 17
4 4 4 4 4 4 4 4 5 5 5 5 5 6 6 6 6 7 7 7 7 7 7 7 7 7 7 7 7 7 7 7 6 6 6 6 6 7 7 7 7 7 7 7 7 7 6 6 6 6 6 6 7 7 8 8 8 9 9 9 10 10 10 10 10 10 11 11 11 11 11 11 11 11 11 11 11 11 11 12 12 12 12 12 12 13 13 13 13 14 14 14 14 15 15 15 16 16 16 17 17 17 17
4 4 4 4 4 4 4 5 5 5 5 5 6 6 6 6 6 7 7 7 7 7 7 7 7 7 7 6 6 6 6 6 6 6 6 6 6 6 6 6 6 6 6 6 6 6 6 6 5 6 6 6 7 7 7 8 8 8 9 9 10 10 10 10 10 10 10 10 10 10 10 10 10 11 11 11 11 11 11 11 12 12 12 12 13 13 13 13 14 14 14 15 15 15 16 16 16 17 17 17 18 18 18
4 4 4 4 4 4 4 5 5 5 5 5 6 6 6 6 6 6 7 7 7 7 7 6 6 6 6 6 6 6 6 6 6 6 6 6 6 6 6 6 6 6 6 6 6 6 5 5 5 5 6 6 6 7 7 8 8 8 9 9 9 10 10 10 10 10 10 10 10 10 10 10 10 10 11 11 11 11 11 12 12 12 12 13 13 13 14 14 14 15 15 16 16 16 16 17 17 17 18 18 18 19 19
4 4 4 4 4 4 4 4 5 5 5 5 6 6 6 6 6 6 6 6 6 6 6 6 6 6 6 6 6 6 6 6 6 6 6 6 6 6 6 6 6 5 5 6 5 5 5 5 5 5 5 6 6 6 7 7 8 8 8 9 9 9 9 9 10 10 10 10 10 10 10 10 10 10 10 11 11 11 11 12 12 12 13 13 13 14 14 15 15 15 16 16 17 17 17 18 18 18 19 19 19 20 20
4 4 4 4 4 4 4 4 5 5 5 5 5 6 6 6 6 6 6 6 6 6 6 6 6 6 5 5 5 5 5 5 5 5 5 5 5 5 5 5 5 5 5 5 5 5 4 4 4 5 5 6 6 6 7 7 7 8 8 8 9 9 9 9 9 9 10 10 10 10 10 10 10 10 11 11 11 11 12 12 12 13 13 14 14 14 15 15 16 16 17 17 18 18 18 19 19 19 20 20 20 21 21
3 3 4 4 4 4 4 4 4 5 5 5 5 5 5 6 6 6 6 6 6 6 6 6 5 5 5 5 5 5 5 5 5 5 5 5 5 5 5 5 5 5 5 5 4 4 4 4 4 5 5 5 6 6 6 7 7 7 8 8 8 8 9 9 9 9 9 9 10 10 10 10 10 11 11 11 11 12 12 13 13 13 14 14 15 15 16 16 17 17 17 18 18 19 19 20 20 21 21 21 22 22 22
3 3 3 3 3 3 3 4 4 4 5 5 5 5 5 5 5 5 5 6 6 6 5 5 5 5 5 5 5 5 5 5 5 5 5 5 5 5 5 5 4 4 4 4 4 4 3 3 4 5 5 5 6 6 6 7 7 7 7 8 8 8 8 9 9 9 9 9 10 10 10 10 11 11 11 12 12 12 13 13 14 14 14 15 16 16 17 17 18 18 19 19 19 20 20 21 21 21 22 22 23 23 24
3 3 3 3 3 3 3 3 4 4 4 4 5 5 5 5 5 5 5 5 5 5 5 5 5 5 5 5 5 5 5 5 4 4 4 4 4 4 4 4 4 4 4 4 3 3 3 3 4 4 5 5 5 6 6 6 7 7 7 7 8 8 8 9 9 9 9 10 10 10 10 11 11 11 12 12 13 13 14 14 15 15 16 16 17 17 18 18 19 19 20 20 21 21 22 22 22 23 23 24 24 24 25
3 3 3 3 3 3 3 3 3 4 4 4 4 4 4 5 5 5 5 5 5 5 5 5 4 4 4 4 4 4 4 4 4 4 4 4 4 4 4 4 4 4 4 3 3 3 3 3 4 4 5 5 5 6 6 6 7 7 7 8 8 8 8 9 9 9 10 10 10 11 11 11 12 12 13 13 14 14 15 15 16 16 17 17 18 19 19 20 20 21 21 22 22 23 23 24 24 24 25 25 26 26 26
3 3 3 3 3 2 2 3 3 3 4 4 4 4 4 4 4 4 5 5 5 4 4 4 4 4 4 4 4 4 4 4 4 4 4 4 4 4 4 4 3 3 3 3 3 3 3 3 4 4 4 5 5 6 6 6 7 7 7 8 8 8 9 9 10 10 10 11 11 12 12 13 13 14 14 15 15 16 16 17 17 18 19 19 20 20 21 21 22 22 23 23 24 24 25 25 26 26 27 27 27 28 28
3 3 3 2 2 2 2 2 3 3 4 4 4 4 4 4 4 4 4 4 4 4 4 4 4 4 4 4 4 4 4 3 3 4 4 4 4 4 3 3 3 3 3 3 2 2 3 3 3 4 4 5 5 6 6 6 7 7 8 8 8 9 9 10 10 11 11 12 12 13 13 14 14 15 16 16 17 17 18 19 19 20 20 21 22 22 23 23 24 24 25 25 26 26 27 27 28 28 29 29 29 30 30
3 3 3 2 2 2 2 2 3 3 3 4 4 4 4 4 4 4 4 4 4 4 4 4 4 4 3 3 3 3 3 3 3 3 3 3 3 3 3 3 3 3 3 2 2 2 3 3 3 4 4 5 5 6 6 7 7 8 8 9 9 10 10 10 11 12 12 13 13 14 15 15 16 17 17 18 18 19 20 20 21 22 22 23 24 24 25 25 26 26 27 27 28 28 29 29 30 30 31 31 31 32 32
3 3 3 2 2 2 2 2 3 3 3 3 3 3 4 4 4 4 4 4 3 3 3 4 4 3 3 3 3 3 3 3 3 3 3 3 3 3 3 3 2 2 2 2 2 3 3 3 3 4 4 5 5 6 6 7 8 8 9 9 10 10 11 11 12 13 13 14 15 15 16 17 17 18 19 19 20 21 21 22 23 23 24 25 25 26 26 27 28 28 29 29 30 30 31 31 32 32 33 33 33 34 34
3 3 3 2 2 2 2 2 2 3 3 3 3 3 3 3 3 3 3 3 3 3 3 3 3 3 3 2 2 2 2 2 3 3 3 3 3 3 2 2 2 2 2 2 3 3 3 3 4 4 4 5 6 6 7 7 8 9 9 10 11 11 12 12 13 14 14 15 16 17 17 18 19 19 20 21 21 22 23 24 24 25 26 26 27 28 28 29 29 30 30 31 31 32 32 33 33 34 34 35 35 35 36
3 3 2 2 2 2 2 2 2 2 3 3 3 3 3 3 3 3 3 3 3 3 3 3 3 3 2 2 2 2 2 2 2 2 2 2 2 2 2 2 2 2 3 3 3 3 4 4 4 5 5 6 6 7 7 8 9 10 10 11 12 12 13 14 14 15 16 16 17 18 19 19 20 21 21 22 23 24 24 25 26 26 27 28 28 29 30 30 31 31 32 32 33 33 34 34 35 35 36 36 37 37 37
3 3 2 2 2 2 1 1 2 2 2 2 2 3 3 3 3 3 3 3 3 2 2 2 2 2 2 2 2 2 2 2 2 2 2 2 2 2 2 3 3 3 3 3 3 4 4 4 5 5 6 6 7 8 8 9 10 10 11 12 13 13 14 15 15 16 17 18 18 19 20 20 21 22 23 23 24 25 26 26 27 28 29 29 30 31 31 32 32 33 33 34 34 35 35 36 36 37 37 37 38 38 38
2 2 2 2 2 1 1 1 1 1 2 2 2 2 2 2 3 3 3 2 2 2 2 2 2 2 1 1 2 2 2 2 2 2 2 2 2 2 3 3 3 3 3 4 4 4 5 5 5 6 6 7 8 8 9 10 10 11 12 13 14 14 15 16 16 17 18 19 19 20 21 22 22 23 24 25 25 26 27 28 28 29 30 31 31 32 32 33 34 34 35 35 36 36 37 37 37 38 38 38 39 39 39
2 2 2 2 2 1 1 1 1 1 1 1 2 2 2 2 2 2 2 2 2 1 1 1 1 1 1 1 2 2 2 2 2 2 3 3 3 3 3 3 3 4 4 4 5 5 5 6 6 7 7 8 9 9 10 11 11 12 13 14 14 15 16 17 18 18 19 20 21 21 22 23 24 24 25 26 27 27 28 29 30 30 31 32 32 33 34 34 35 35 36 36 37 37 37 38 38 39 39 39 39 40 40
2 2 2 1 1 1 1 1 1 1 1 1 1 1 2 2 2 2 2 2 1 1 1 1 1 1 1 1 2 2 2 2 3 3 3 3 3 3 4 4 4 4 5 5 5 6 6 7 7 8 8 9 9 10 11 12 12 13 14 15 16 16 17 18 19 19 20 21 22 23 23 24 25 26 26 27 28 29 29 30 31 32 32 33 34 34 35 35 36 36 37 37 38 38 38 39 39 39 40 40 40 41 41
2 2 1 1 2 2 2 2 2 1 1 1 1 1 1 1 1 1 1 1 1 1 1 1 1 1 2 2 2 2 2 3 3 3 3 4 4 4 4 5 5 5 5 6 6 7 7 8 8 9 9 10 10 11 12 13 13 14 15 16 17 17 18 19 20 21 22 22 23 24 25 25 26 27 28 28 29 30 31 31 32 33 33 34 35 35 36 36 37 37 38 38 39 39 39 40 40 40 40 40 41 41 42
2 1 2 2 2 2 2 2 2 2 1 1 1 1 1 1 1 1 1 1 1 1 1 2 2 2 2 2 2 3 3 3 3 3 4 4 4 5 5 5 5 6 6 7 7 7 8 9 9 10 10 11 11 12 13 14 14 15 16 17 18 19 20 20 21 22 23 24 24 25 26 27 27 28 29 30 30 31 32 33 33 34 35 35 36 36 37 37 38 38 39 39 40 40 40 40 41 41 41 41 41 42 42
2 2 2 3 3 3 3 3 2 2 1 1 1 1 1 0 0 0 1 1 1 2 2 2 2 2 3 3 3 3 3 4 4 4 4 4 5 5 5 6 6 7 7 7 8 8 9 9 10 11 11 12 13 13 14 15 15 16 17 18 19 20 21 22 22 23 24 25 25 26 27 28 28 29 30 31 31 32 33 34 34 35 36 36 37 37 38 38 39 39 40 40 40 41 41 41 41 42 42 42 42 42 43
2 3 3 3 3 3 3 3 3 2 2 2 1 1 1 1 1 1 1 1 2 2 2 3 3 3 3 3 4 4 4 4 5 5 5 5 5 5 6 6 7 7 8 8 9 9 10 10 11 12 12 13 14 14 15 16 17 18 19 20 20 21 22 23 24 24 25 26 27 27 28 29 30 30 31 32 32 33 34 35 35 36 36 37 37 38 38 39 39 40 40 41 41 41 42 42 42 43 43 43 43 43 43
3 3 3 4 4 4 3 3 3 2 2 2 2 2 2 2 2 2 2 2 2 3 3 3 3 4 4 4 4 4 5 5 5 6 6 6 6 6 7 7 7 8 8 9 10 10 11 11 12 13 13 14 15 16 16 17 18 19 20 21 22 23 23 24 25 26 26 27 28 28 29 30 31 31 32 33 34 34 35 36 36 37 37 38 38 39 39 39 40 40 41 41 42 42 42 43 43 43 44 44 44 44 44
3 3 4 4 4 4 3 3 3 2 2 2 2 2 2 2 2 2 2 3 3 3 4 4 4 4 4 4 5 5 5 5 6 6 6 7 7 7 7 8 8 9 9 10 10 11 12 12 13 14 14 15 16 17 17 18 19 20 21 22 23 24 24 25 26 27 27 28 29 29 30 31 32 32 33 34 34 35 36 36 37 37 38 38 39 39 39 40 40 41 41 42 42 43 43 43 43 44 44 45 45 45 46
3 4 4 4 4 3 3 2 2 2 2 2 2 3 3 3 3 3 3 3 4 4 4 5 5 5 5 5 5 5 6 6 6 7 7 7 8 8 8 9 9 10 10 11 11 12 13 13 14 15 15 16 17 18 18 19 20 21 22 23 24 24 25 26 27 27 28 29 30 30 31 32 32 33 34 34 35 36 36 37 37 38 38 39 39 40 40 40 40 41 42 42 43 43 44 44 44 45 45 45 46 46 46
3 3 3 3 3 3 3 2 2 2 2 2 3 3 3 4 4 4 4 4 5 5 5 5 6 6 6 6 6 6 7 7 7 8 8 8 9 9 9 10 10 11 11 12 12 13 14 14 15 16 16 17 18 19 19 20 21 22 23 24 25 25 26 27 28 28 29 30 31 31 32 32 33 34 34 35 35 36 36 37 37 38 38 39 39 40 40 41 41 41 42 43 44 44 45 45 45 46 46 46 46 47 47
3 3 3 3 3 3 3 2 2 2 2 3 3 3 4 4 4 4 4 5 5 5 6 6 6 7 7 7 7 7 8 8 8 9 9 9 10 10 10 11 11 12 12 13 13 14 14 15 16 17 17 18 19 20 20 21 22 23 24 25 26 26 27 28 29 29 30 31 31 32 33 33 34 34 35 35 36 36 37 37 38 38 39 39 40 40 41 41 41 42 43 43 44 45 45 46 46 46 46 47 47 47 48
3 3 3 3 3 3 3 3 2 2 3 3 3 4 4 4 4 5 5 5 6 6 6 7 7 7 8 8 8 8 9 9 9 10 10 10 11 11 11 12 12 13 13 14 14 15 15 16 17 18 18 19 20 20 21 22 23 24 25 26 27 27 28 29 30 30 31 32 32 33 33 34 34 35 35 36 36 37 37 38 38 39 39 40 40 41 41 42 42 43 43 44 44 45 45 46 46 46 47 47 47 47 48
4 4 3 3 3 3 3 3 3 3 3 3 3 4 4 4 5 5 5 6 6 7 7 7 8 8 8 9 9 9 9 10 10 11 11 11 11 12 12 13 13 14 14 15 15 16 16 17 18 19 19 20 21 21 22 23 24 25 26 27 28 28 29 30 30 31 32 32 33 33 34 34 35 35 36 36 37 37 38 38 39 39 40 40 41 41 42 42 43 43 44 44 44 45 45 46 46 46 46 47 47 47 47
4 4 4 4 4 4 3 3 3 3 3 3 3 4 4 5 5 6 6 6 7 7 8 8 8 9 9 9 10 10 10 10 11 11 11 12 12 13 13 13 14 14 15 16 16 17 17 18 19 19 20 21 22 22 23 24 25 26 27 28 29 29 30 31 31 32 32 33 33 34 34 35 35 36 36 37 37 38 38 39 39 40 40 41 41 42 42 43 43 44 44 44 44 45 45 45 46 46 46 47 47 47 48
4 4 4 4 4 4 4 3 3 3 3 3 4 4 5 5 6 6 6 7 7 8 8 9 9 9 10 10 10 10 11 11 11 12 12 13 13 13 14 14 15 15 16 16 17 18 18 19 20 20 21 22 23 23 24 25 26 27 28 29 30 30 31 31 32 32 33 33 34 34 35 35 36 36 37 37 38 38 39 40 40 41 41 42 42 42 43 43 43 44 44 44 44 45 45 45 45 46 46 47 47 48 48
4 4 4 4 5 5 4 4 4 4 4 4 4 5 5 6 6 7 7 7 8 8 9 9 10 10 10 11 11 11 11 12 12 12 13 13 14 14 15 15 16 16 17 17 18 18 19 20 20 21 22 23 24 24 25 26 27 28 29 30 30 31 31 32 32 33 33 34 34 35 35 36 37 37 38 38 39 39 40 40 41 41 42 42 42 42 43 43 43 43 44 44 44 44 45 45 46 46 46 47 47 48 48
5 5 5 5 5 5 5 5 4 4 4 5 5 6 6 7 7 7 8 8 8 9 9 10 10 11 11 11 12 12 12 12 13 13 13 14 14 15 16 16 17 17 18 18 19 19 20 21 21 22 23 23 24 25 26 27 28 29 29 30 30 31 31 32 32 33 33 34 35 36 36 37 38 38 39 39 39 40 40 41 41 41 42 42 42 42 42 43 43 43 43 44 44 44 45 45 46 46 46 47 47 48 48
5 5 5 5 5 5 5 5 5 5 5 5 6 6 7 7 8 8 8 9 9 10 10 10 11 11 12 12 13 13 13 13 14 14 14 14 15 16 16 17 18 18 19 19 20 20 21 21 22 23 23 24 25 26 26 27 28 28 29 29 30 30 31 32 32 33 34 35 36 36 37 38 38 39 39 40 40 40 41 41 41 41 42 42 42 42 42 42 42 43 43 43 44 44 45 45 45 46 46 47 47 47 48
5 5 5 5 5 5 5 6 6 6 6 6 7 7 8 8 8 9 9 10 10 11 11 11 12 12 13 13 14 14 14 14 15 15 15 15 16 17 17 18 18 19 19 20 20 21 21 22 22 23 24 24 25 25 26 27 27 28 28 29 30 30 31 32 33 34 35 36 37 37 38 39 39 39 40 40 40 40 40 41 41 41 41 41 41 42 42 42 42 43 43 43 44 44 44 45 45 46 46 46 47 47 47
5 6 5 6 6 6 6 6 6 7 7 7 8 8 9 9 9 10 10 11 11 12 12 13 13 13 14 14 15 15 15 15 16 16 16 17 17 17 18 18 19 19 20 20 21 21 22 22 23 23 24 24 25 25 26 26 27 27 28 29 30 31 32 33 34 34 35 36 37 38 39 39 39 39 39 39 39 40 40 40 40 40 41 41 41 41 42 42 42 43 43 43 44 44 44 45 45 45 45 46 46 47 47
6 6 6 6 6 6 6 6 7 7 8 8 9 9 10 10 11 11 11 12 12 13 13 14 14 15 15 15 16 16 16 16 17 17 17 17 18 18 18 19 19 19 20 20 21 21 22 22 23 23 24 24 25 25 26 26 27 28 29 29 30 31 32 33 34 35 36 37 37 38 39 39 39 39 39 39 39 39 39 39 40 40 40 41 41 41 42 42 42 43 43 43 44 44 44 44 45 45 45 46 46 46 47
7 6 6 6 6 6 7 7 7 8 9 9 10 10 11 11 12 12 13 13 14 14 14 15 16 16 16 17 17 17 17 17 18 18 18 18 18 18 19 19 20 20 20 20 21 22 22 23 23 24 24 25 25 26 26 27 27 28 29 29 30 31 31 32 33 34 35 37 37 38 39 39 39 39 39 38 38 39 39 39 39 40 40 41 41 41 42 42 42 43 43 43 43 44 44 44 45 45 45 46 46 47 47
7 7 6 6 6 7 7 8 8 9 10 10 11 11 12 13 13 14 14 14 15 15 16 16 17 17 18 18 18 18 18 19 19 19 19 19 19 19 19 19 20 20 20 21 21 22 22 23 23 24 24 25 26 26 26 27 27 27 28 28 29 30 31 32 33 34 35 37 38 38 38 38 38 38 38 39 39 39 39 39 40 40 40 41 41 41 42 42 42 43 43 43 44 44 44 45 45 46 46 47 47 48 48
7 7 7 7 7 8 8 9 9 10 11 11 12 12 13 14 14 15 15 16 16 16 17 17 18 18 19 19 19 19 19 19 20 19 19 20 20 20 20 20 20 19 20 20 21 22 22 23 23 24 24 25 25 26 26 26 26 26 27 28 28 29 30 31 33 34 36 37 38 38 39 38 39 39 39 39 39 40 40 40 40 40 41 41 41 42 42 42 43 43 43 44 44 45 45 46 46 46 47 47 48 48 49
8 7 8 8 8 9 9 10 10 11 12 12 13 13 14 15 15 16 16 17 17 17 18 18 19 19 20 20 20 20 20 20 20 21 21 20 20 20 20 19 19 18 19 20 21 22 22 22 22 23 24 24 25 25 25 25 26 26 27 27 28 29 31 32 33 35 36 37 38 38 39 39 39 39 39 40 40 40 40 41 41 41 41 41 41 42 42 43 43 44 44 45 45 46 46 47 47 47 48 48 49 50 50
8 8 8 9 9 10 10 11 11 12 13 13 14 14 15 16 16 17 17 17 18 18 18 19 19 20 20 20 21 21 21 21 21 21 21 21 21 20 19 18 18 17 17 19 20 21 21 21 21 22 23 24 24 24 25 25 26 27 28 28 29 30 31 33 34 35 36 37 38 39 39 39 39 39 40 40 40 40 41 41 41 41 42 42 42 42 43 43 44 44 45 46 46 47 47 47 48 48 49 49 50 51 51
9 9 9 10 10 11 11 12 12 13 14 14 15 15 16 16 17 17 17 18 18 18 19 19 20 20 20 20 21 21 21 21 21 21 21 21 21 21 21 20 19 18 17 17 19 21 21 21 21 22 23 23 24 25 25 26 27 28 29 29 30 31 32 33 35 36 37 37 38 39 39 39 39 40 40 40 40 40 41 41 41 42 42 43 43 43 44 44 45 45 46 46 47 48 48 49 49 50 50 51 51 52 52
10 10 10 11 11 12 12 13 13 14 14 15 15 16 16 17 17 17 18 18 18 19 19 20 20 21 21 21 21 21 21 21 21 21 21 21 21 21 21 21 20 19 18 17 17 19 21 21 21 22 23 24 25 25 26 27 28 28 29 29 30 31 32 34 35 36 37 37 38 38 38 39 39 39 39 40 40 40 41 41 42 42 43 43 44 44 45 45 46 46 47 47 48 49 49 50 50 51 51 52 53 53 54
11 11 12 12 12 13 13 13 14 15 15 15 16 16 17 17 17 18 18 18 19 19 19 20 20 21 21 21 21 21 21 21 21 21 22 22 22 21 21 21 21 21 20 19 19 19 21 21 21 22 23 25 26 26 27 27 28 28 29 30 30 31 32 34 35 36 36 37 37 37 38 38 38 39 39 39 40 40 41 41 42 42 43 44 44 45 45 46 47 47 48 48 49 50 50 51 52 52 53 54 54 55 55
12 12 12 13 13 13 14 14 14 15 16 16 16 17 17 17 18 18 18 19 19 19 20 20 20 20 20 21 21 20 20 21 21 21 21 22 22 22 22 21 21 21 22 22 23 23 23 23 23 24 24 26 26 27 27 28 28 28 29 29 30 31 32 33 35 35 36 36 37 37 37 37 38 38 38 39 39 40 41 41 42 43 43 44 45 46 46 47 47 48 49 50 50 51 52 52 53 54 54 55 55 56 56
13 13 13 13 14 14 14 15 15 15 16 17 17 17 17 18 18 18 18 19 19 20 20 20 21 21 20 20 20 20 20 20 20 20 20 21 21 22 23 22 22 22 22 23 25 26 26 27 27 26 27 28 28 28 28 28 29 29 29 30 30 31 32 33 34 35 36 36 36 36 37 37 37 38 38 39 40 40 41 42 42 43 44 45 45 46 47 48 49 50 50 51 52 53 54 54 55 55 55 56 56 56 56
14 14 14 14 14 14 15 15 15 16 17 17 17 17 18 18 18 18 19 19 20 20 20 20 21 21 21 21 20 20 20 20 20 20 20 20 21 21 22 23 24 25 25 26 26 27 29 30 30 30 29 29 30 30 30 29 29 30 30 31 31 32 33 34 34 35 35 36 36 36 37 37 38 38 39 39 40 41 41 42 43 44 44 45 46 47 48 49 50 51 52 53 54 55 56 56 56 56 56 56 56 56 56
14 14 15 15 15 15 15 15 16 16 17 17 18 18 18 18 18 19 19 20 20 20 20 20 21 21 21 21 20 19 19 19 19 19 19 19 20 21 22 23 24 25 27 28 29 29 30 31 32 33 31 31 31 31 31 31 31 31 31 31 32 32 33 34 35 35 36 36 36 36 37 37 38 39 39 40 41 41 42 43 43 44 45 46 47 48 49 50 52 53 54 55 56 57 57 58 58 57 57 56 56 56 55
15 15 15 15 15 15 16 16 16 16 17 18 18 18 18 18 19 19 20 20 20 21 21 21 21 21 21 21 20 19 18 19 19 19 19 19 20 21 22 23 24 25 26 28 29 30 32 32 33 34 34 32 32 31 32 33 33 33 32 32 32 33 34 35 35 36 36 36 37 37 38 38 39 40 40 41 41 42 43 44 44 45 46 47 48 49 51 52 53 54 55 56 57 58 59 59 59 58 57 56 56 55 54
15 16 16 16 16 16 16 16 16 17 17 18 18 19 19 19 19 20 20 20 21 21 21 20 20 20 20 20 19 18 18 18 19 19 19 19 20 21 23 23 24 25 27 28 29 31 32 33 33 34 34 34 33 32 32 32 33 33 33 33 33 33 34 35 36 37 37 37 37 38 39 39 40 41 41 42 42 43 44 45 46 47 48 49 50 51 52 53 54 56 57 57 58 59 59 59 59 58 57 56 55 53 52
16 16 16 16 16 17 17 17 17 17 18 18 19 19 19 19 20 20 21 21 21 21 20 20 20 19 19 19 19 18 18 18 18 18 19 20 21 22 23 24 25 26 27 28 29 31 32 32 33 34 34 35 35 34 33 33 33 33 33 33 34 34 34 35 36 37 38 38 39 39 40 40 41 42 42 43 43 44 45 46 47 48 49 51 52 53 54 55 56 56 57 58 59 59 59 59 58 57 56 55 54 52 51
16 16 16 17 17 17 17 17 17 18 18 19 19 20 20 20 20 21 21 21 21 20 19 19 19 19 19 19 18 18 18 18 18 19 19 21 22 23 23 24 25 26 27 28 29 30 31 32 33 33 34 35 36 36 35 34 34 34 33 33 33 34 34 35 36 37 38 39 40 40 41 41 42 43 43 44 45 46 47 48 49 50 51 52 53 54 55 56 56 57 58 58 59 59 59 58 57 56 55 54 52 51 50
Wind_Direction
17 14 12 12 13 16 21 24 26 28 32 34 37 37 36 35 34 32 28 24 20 17 15 14 13 14 14 15 16 17 18 20 20 20 20 20 21 22 23 24 25 25 25 24 23 22 21 21 20 20 20 19 19 19 19 20 21 23 24 24 24 24 23 22 21 20 18 16 13 10 8 6 4 2 1 360 359 358 357 357 356 355 355 354 354 353 353 352 352 351 350 350 349 348 347 346 345 344 343 342 340 339 338
14 12 11 12 16 20 25 29 34 37 40 41 41 41 37 33 31 29 26 23 20 18 18 18 19 20 21 21 22 24 24 25 25 25 24 25 25 26 26 26 26 26 26 26 24 23 22 22 21 21 21 22 22 23 24 25 26 27 28 27 27 25 24 23 21 19 17 14 11 9 6 5 3 2 1 360 359 358 358 357 357 356 356 356 355 355 355 354 353 353 352 352 351 350 349 348 347 346 345 343 342 341 340
14 13 12 15 21 27 30 36 40 44 45 45 44 41 36 31 29 28 26 24 22 22 23 23 24 25 25 26 27 28 29 29 29 29 29 29 29 29 28 27 27 27 27 26 25 24 22 22 21 22 23 24 26 29 30 31 32 31 30 29 28 26 24 22 20 17 15 13 10 8 6 5 4 3 2 1 0 360 359 359 358 358 357 357 357 356 356 355 355 354 353 352 352 351 350 349 348 347 346 345 344 342 341
17 17 16 19 27 35 40 44 47 50 49 48 45 41 36 32 29 28 28 26 26 26 27 28 28 29 30 31 32 32 33 33 33 33 33 32 32 31 30 29 27 27 27 26 25 24 23 22 22 23 25 28 31 34 36 37 36 35 33 31 28 26 23 21 19 17 14 12 11 9 7 6 6 5 4 3 2 1 1 0 360 359 359 359 358 357 357 356 355 355 354 353 352 351 350 349 348 347 346 345 344 343 342
20 21 22 25 33 43 51 53 53 53 51 48 45 42 36 34 31 30 30 30 30 30 31 32 33 33 34 35 36 36 36 36 36 36 35 35 34 33 31 29 28 27 26 26 24 24 24 24 24 26 28 32 36 39 41 41 39 37 34 30 27 24 22 20 18 16 15 13 11 10 9 8 8 7 6 5 4 3 3 2 1 1 0 360 359 358 357 356 355 355 354 353 352 350 349 348 347 346 345 344 343 342 341
25 25 27 31 39 48 55 59 59 56 52 48 44 41 38 35 34 33 34 33 33 34 35 36 37 37 38 39 40 40 40 40 40 39 38 36 35 33 31 29 27 26 26 25 25 25 25 26 26 28 32 37 41 43 43 42 40 37 33 29 26 24 22 20 18 16 15 13 12 11 10 9 9 8 7 6 5 5 4 3 2 1 1 360 359 358 357 356 355 354 352 351 350 349 348 347 345 344 343 342 341 340 340
27 30 33 37 43 50 55 57 58 55 51 47 44 41 39 37 37 36 36 36 37 37 38 39 40 41 42 43 43 43 43 42 41 40 38 37 35 34 32 29 28 26 25 25 26 27 28 28 29 32 37 41 44 44 44 42 39 35 31 28 25 23 22 20 18 16 16 14 13 12 11 10 9 8 7 6 5 5 4 2 1 1 360 359 357 356 355 354 353 351 350 349 348 346 345 344 343 342 341 340 339 338 337
31 33 39 42 48 52 54 55 55 53 49 46 44 42 40 39 38 38 39 39 39 40 41 42 43 44 45 45 46 46 45 43 42 39 37 36 35 33 32 30 28 28 27 27 28 29 31 32 34 37 41 44 45 45 43 41 37 34 30 27 25 23 22 19 18 16 15 14 13 12 11 10 9 7 6 5 4 3 2 1 -0 359 357 356 354 353 352 351 349 348 347 346 344 343 342 341 340 339 338 338 337 336 335
33 39 44 48 52 54 54 53 51 49 47 44 42 41 40 39 40 40 40 40 41 42 43 44 46 47 48 48 48 47 46 44 41 38 36 35 34 33 33 31 30 29 29 30 31 33 34 36 38 42 44 45 46 44 42 40 36 33 29 27 25 23 21 19 17 16 14 13 12 11 10 9 8 6 5 3 2 1 360 359 357 355 354 352 351 349 348 347 345 344 343 342 341 340 339 338 337 336 335 335 334 333 333
38 44 49 54 56 56 55 53 50 47 45 42 41 41 40 41 41 42 42 43 43 43 45 47 48 49 49 49 48 46 45 42 40 37 35 35 34 34 33 33 32 32 33 33 35 36 38 40 43 46 46 46 44 43 41 38 35 32 29 27 25 23 20 18 16 14 13 11 10 9 8 6 5 4 2 0 359 357 356 355 353 351 350 348 347 345 344 342 341 340 339 338 337 336 335 334 333 332 332 331 330 330 329
43 50 55 58 59 59 55 52 49 46 43 41 40 41 41 41 42 43 44 44 45 46 47 48 49 50 49 49 47 45 42 41 38 36 35 35 35 35 35 34 34 35 37 38 39 41 42 45 48 49 47 46 44 41 39 37 34 31 29 26 25 22 19 17 14 12 11 9 7 6 4 3 1 360 358 356 354 353 351 350 348 347 345 344 342 341 340 338 337 336 335 334 333 332 331 330 330 329 328 328 327 326 326
49 55 59 61 61 59 56 52 49 46 43 41 41 42 42 43 44 45 47 47 48 48 49 49 50 50 50 48 45 43 41 39 37 36 36 37 37 37 36 36 37 39 41 43 44 45 46 50 52 52 49 46 42 40 38 36 33 31 28 25 23 20 17 15 12 10 8 6 4 2 -0 358 356 354 353 351 350 348 346 345 343 342 340 339 338 336 335 334 333 332 331 330 329 329 328 327 326 325 325 324 324 323 322
56 60 63 64 63 60 57 53 49 46 44 43 43 44 45 46 47 48 50 50 51 51 51 51 51 50 48 46 43 41 39 38 38 37 38 39 39 39 38 38 40 42 45 48 50 50 53 55 57 54 50 46 42 39 36 34 32 29 26 23 20 17 14 12 9 7 4 2 360 357 355 353 351 349 347 346 344 343 341 340 338 337 336 334 333 332 331 330 329 328 327 326 326 325 324 323 323 322 321 321 321 320 319
64 67 69 68 66 62 58 54 50 47 45 45 45 46 47 48 50 51 53 53 54 54 53 52 51 50 47 44 42 40 39 39 39 39 41 42 43 42 42 41 42 45 49 52 53 54 56 58 58 56 52 45 40 36 33 31 29 26 22 19 16 13 11 8 5 3 360 357 355 352 350 348 346 343 342 341 339 338 336 335 334 332 331 330 329 328 327 326 325 324 324 323 322 321 321 320 319 319 318 318 318 317 317
73 73 73 72 68 65 59 55 52 49 48 48 49 50 50 52 53 54 56 57 57 57 56 55 53 50 47 44 41 40 40 40 40 42 43 45 46 46 45 44 45 48 51 54 55 56 56 58 56 54 49 43 37 32 28 25 23 20 17 14 11 8 5 2 360 357 354 352 349 346 344 342 340 338 337 335 334 333 332 330 329 328 327 326 325 324 323 322 322 321 320 320 319 318 317 317 316 316 316 315 315 315 314
81 81 79 76 73 68 63 58 55 54 53 53 53 54 55 55 57 58 59 61 61 61 60 58 54 50 46 43 41 41 41 42 43 44 46 48 49 49 49 49 49 51 53 55 55 53 52 52 51 47 43 38 32 26 22 18 15 12 9 7 4 1 359 356 353 351 348 345 343 341 339 337 335 334 333 332 330 329 328 327 326 325 324 323 322 321 320 320 319 318 318 317 316 316 315 315 314 314 313 313 313 312 312
88 88 85 83 79 73 69 64 61 58 57 58 58 58 59 60 60 61 62 63 65 65 63 60 56 51 47 45 42 42 42 42 44 46 48 49 50 51 52 52 53 52 54 54 50 46 43 41 41 39 35 30 25 19 13 10 6 4 2 359 357 354 352 349 346 344 342 340 338 336 334 333 331 330 329 328 327 326 325 324 323 322 321 321 320 319 318 318 317 316 315 315 314 314 314 313 313 312 312 311 311 311 310
96 96 93 91 87 82 75 68 65 63 62 62 61 62 63 63 64 64 66 67 69 69 67 64 60 54 49 46 44 43 43 43 44 45 47 49 50 51 52 53 54 54 52 51 43 38 33 31 31 29 26 21 16 11 6 2 358 355 353 351 349 347 345 343 340 338 337 334 333 331 330 329 328 327 326 325 325 324 323 322 321 320 320 319 318 317 317 316 315 315 314 314 313 313 312 312 312 311 311 310 310 310 309
102 103 103 103 99 92 82 73 68 66 64 65 64 64 67 66 67 67 68 70 71 72 71 67 63 58 52 47 44 44 44 44 44 44 45 46 46 47 48 49 50 50 47 42 35 28 25 22 20 18 15 11 6 2 358 354 351 348 346 344 342 340 339 336 335 333 332 330 329 328 327 326 325 325 324 323 322 322 321 320 319 319 318 317 317 316 315 315 314 314 313 313 313 312 312 311 311 311 310 310 310 309 309
111 111 112 112 107 100 87 77 72 68 67 67 66 68 69 70 70 70 71 71 73 73 73 70 66 61 56 50 47 45 44 45 44 44 42 42 42 41 41 40 40 41 38 30 23 20 14 12 10 7 3 -0 357 353 350 347 344 342 340 338 337 335 333 332 331 329 328 327 326 325 324 324 323 323 322 322 321 320 319 319 318 317 317 316 315 315 314 314 314 313 313 312 312 312 311 311 311 311 310 310 310 309 309
118 118 119 118 117 107 93 83 76 72 69 67 67 69 71 72 72 72 72 72 75 75 76 73 70 66 61 53 49 47 45 44 43 42 38 37 35 32 32 29 28 27 23 16 11 8 4 0 358 356 354 350 348 345 343 340 339 337 335 333 332 331 330 329 328 326 326 325 324 323 323 322 322 321 321 320 320 319 318 317 317 316 316 315 315 314 314 313 313 312 312 312 311 311 311 311 311 310 310 310 310 309 309
122 123 125 126 122 112 101 88 79 75 73 69 70 71 73 72 72 72 71 72 74 76 78 78 75 72 65 54 47 45 42 40 40 39 34 29 24 22 18 16 12 11 9 4 0 357 354 351 349 347 345 344 341 339 337 336 334 333 331 330 329 328 327 326 325 324 323 323 322 321 321 321 320 320 319 319 318 317 317 316 316 315 315 314 314 313 313 313 312 312 312 312 311 311 311 311 310 310 310 310 310 310 309
127 127 131 133 128 119 106 96 88 85 80 74 72 73 73 73 72 70 70 69 71 73 76 78 77 73 63 49 40 34 29 29 28 29 25 18 12 8 5 3 0 357 355 353 351 349 346 345 343 341 340 338 336 335 333 332 331 330 329 328 327 326 325 324 323 322 322 321 320 320 319 319 319 318 318 317 317 316 315 315 314 314 314 313 313 313 312 312 312 312 311 311 311 311 311 311 311 310 310 310 310 310 310
130 132 136 138 138 132 122 116 107 99 88 80 76 75 75 73 72 68 67 64 62 63 66 71 71 63 49 35 24 15 12 9 9 7 5 1 356 354 353 351 350 348 345 345 343 341 340 339 338 336 335 334 333 332 331 330 329 328 327 326 325 324 323 322 321 320 320 319 318 318 318 317 317 317 316 316 315 315 314 314 313 313 313 313 312 312 312 312 312 311 311 311 311 311 311 311 310 310 310 310 310 310 310
131 133 138 147 150 149 148 145 139 124 106 92 81 79 76 74 70 68 65 60 55 51 47 47 47 38 30 19 9 2 359 355 354 350 349 347 345 345 342 342 342 341 340 338 337 336 335 335 334 333 332 331 330 330 329 328 327 326 325 324 323 322 321 320 319 318 317 317 317 316 316 316 316 316 315 315 314 313 313 313 312 312 312 312 312 312 312 311 311 311 311 311 311 311 311 311 311 310 310 310 310 310 310
129 134 146 160 170 178 182 180 171 156 127 109 92 84 79 77 73 69 66 59 48 35 22 14 11 10 9 6 358 351 344 343 341 341 339 338 337 336 335 336 336 335 334 333 333 332 332 331 330 330 329 328 328 327 327 326 325 324 323 321 320 319 318 317 317 316 316 315 315 315 315 315 315 314 314 313 313 312 312 312 312 312 311 311 311 311 311 311 311 311 311 311 311 311 311 311 310 310 310 310 310 310 310
129 144 163 182 197 201 201 197 189 180 162 133 106 96 88 83 78 76 69 60 39 17 0 351 349 350 349 346 341 336 332 332 332 330 332 332 331 331 331 330 331 330 330 329 329 329 328 328 327 327 326 326 325 325 324 323 322 321 320 319 318 317 316 315 315 315 315 314 314 314 314 314 314 313 313 312 312 311 311 311 311 311 311 311 311 311 311 311 311 311 311 311 311 311 311 310 310 310 310 310 310 310 310
144 168 191 204 212 214 210 207 202 197 188 176 160 143 127 100 86 71 60 40 13 353 343 337 335 333 334 330 326 323 321 323 323 324 326 328 328 328 327 327 327 327 326 325 325 324 323 323 323 323 323 322 322 322 321 320 320 319 318 316 316 315 314 314 314 314 314 314 314 314 313 313 312 312 311 311 311 311 311 311 311 311 311 311 311 311 311 311 311 311 311 311 311 311 311 310 310 310 310 310 310 310 310
170 189 206 215 219 219 215 212 209 207 206 206 205 202 216 225 288 0 0 357 345 337 331 327 326 326 324 321 318 316 314 316 318 318 320 322 324 324 324 323 322 322 322 321 320 320 319 319 319 319 319 319 319 319 318 318 317 316 315 314 314 313 313 313 313 313 313 313 313 312 312 312 311 311 310 310 310 310 310 310 310 311 311 311 311 311 311 311 311 311 311 311 311 311 311 310 310 310 309 309 309 309 309
185 196 209 217 221 221 218 215 213 211 216 222 226 232 242 260 279 308 326 331 328 325 321 318 317 316 314 314 313 311 312 312 314 314 316 317 319 320 320 319 318 318 318 317 316 316 316 315 316 316 316 316 316 316 316 316 315 315 314 313 313 312 312 312 312 312 312 312 312 311 311 310 310 310 310 310 310 310 310 310 311 311 311 311 311 311 311 311 311 311 311 311 311 311 311 310 310 309 309 309 308 308 308
192 199 208 216 221 221 219 218 216 218 225 232 240 250 259 272 284 299 312 317 316 313 311 309 308 308 308 308 308 309 310 311 310 311 311 313 314 314 314 314 313 314 314 314 314 313 313 313 313 314 314 314 314 315 314 314 314 313 312 312 311 311 311 311 311 311 311 310 310 310 310 309 309 309 310 310 310 310 311 311 311 311 311 311 311 311 311 311 310 310 310 310 310 310 310 310 309 309 308 308 307 307 307
197 200 207 214 220 223 224 224 223 224 234 246 254 263 272 282 290 295 301 304 304 303 301 301 300 301 302 302 303 304 306 307 307 307 307 308 309 309 309 309 309 309 310 310 311 311 311 312 312 312 313 313 313 313 313 313 312 312 311 310 310 310 310 310 310 310 309 309 309 309 309 309 310 310 310 311 311 311 311 311 311 311 311 311 311 311 310 310 310 310 309 309 309 309 309 309 309 308 307 307 306 305 305
204 205 209 216 223 229 234 236 236 240 253 262 269 275 281 285 288 291 293 293 293 294 294 294 295 296 297 297 298 299 301 302 302 303 303 304 305 305 305 306 306 306 307 308 308 309 309 309 310 310 311 311 312 312 311 311 311 310 309 309 309 309 309 309 308 308 308 308 309 309 309 310 310 310 311 311 311 311 311 311 310 310 310 310 310 310 310 310 310 309 309 309 309 309 309 308 308 307 307 306 305 304 304
212 212 216 223 232 242 252 256 262 267 273 277 280 283 284 286 287 288 288 288 288 289 289 290 292 292 293 294 295 296 297 297 299 299 300 301 302 303 303 304 304 304 305 306 306 306 306 307 308 308 309 309 309 309 309 309 308 308 307 307 307 307 307 307 307 307 308 308 309 309 310 310 311 311 311 311 310 310 310 310 310 309 309 310 310 310 310 310 309 309 309 308 308 308 308 308 307 307 306 306 305 304 304
219 221 226 233 242 253 263 271 279 284 285 285 285 284 285 285 286 285 285 284 284 285 286 287 288 289 290 291 293 294 295 296 297 297 299 300 300 301 302 302 302 303 303 304 304 304 304 305 305 306 306 307 307 307 307 307 306 306 306 306 306 306 306 306 307 307 308 309 309 310 310 310 311 310 310 310 310 310 309 309 309 309 309 309 309 309 309 309 309 309 308 308 308 307 307 307 307 306 306 306 305 305 304
226 229 233 240 249 256 266 273 281 286 287 286 285 285 284 284 284 284 283 283 283 284 284 285 286 287 288 291 292 294 295 296 297 298 298 299 300 300 300 300 300 301 301 302 302 302 303 303 304 304 304 304 305 305 305 305 305 305 305 305 305 305 306 307 307 308 309 309 310 310 310 310 310 310 310 310 309 309 309 309 309 309 309 309 309 309 309 309 309 309 308 308 307 307 307 307 306 306 306 306 305 305 304
231 235 240 245 252 259 264 271 277 282 285 284 283 282 281 281 281 282 282 282 284 285 285 286 287 288 289 291 293 294 295 296 297 298 299 298 298 299 299 299 299 299 300 300 300 300 301 302 302 302 303 303 303 304 304 304 304 304 304 305 305 306 307 308 309 309 310 310 310 310 310 310 310 310 309 309 309 309 309 309 309 309 309 310 310 310 310 309 309 309 308 308 308 307 307 307 306 306 306 306 305 305 304
235 240 244 251 257 262 267 269 272 276 278 277 278 277 277 278 279 280 282 284 285 286 287 289 289 290 290 292 293 294 295 296 297 298 298 298 298 298 298 297 297 298 299 299 299 299 301 301 301 302 302 303 303 304 304 304 304 305 305 306 307 308 309 309 310 310 310 310 310 310 310 309 309 309 309 308 308 308 309 309 309 310 310 310 310 310 310 309 309 309 308 308 308 307 307 307 306 306 306 306 305 305 305
238 242 248 255 260 265 268 271 272 273 273 272 272 273 274 277 279 281 283 284 286 287 289 289 290 291 291 292 293 293 294 294 295 296 296 297 297 297 297 296 297 297 298 298 299 300 301 302 302 303 304 304 305 305 305 305 306 306 307 308 309 310 310 310 310 310 310 310 310 309 309 309 309 308 308 308 308 309 309 310 310 310 310 310 310 310 309 309 309 308 308 308 308 307 307 307 307 306 306 306 305 305 305
241 245 250 256 262 266 271 272 272 272 272 271 271 273 274 276 279 282 283 285 287 287 288 289 290 291 291 292 292 293 293 293 294 295 296 296 297 297 297 297 298 299 299 300 301 302 303 304 305 305 306 306 306 306 307 307 308 308 309 310 310 311 311 311 310 310 310 310 309 309 309 308 308 308 308 308 309 309 310 310 310 310 310 310 310 309 309 308 308 308 308 308 307 307 307 307 306 306 306 306 305 305 305
240 245 251 257 261 266 271 273 273 273 273 273 273 274 275 277 280 283 284 286 287 287 287 288 289 290 291 291 292 293 293 294 295 295 296 296 296 297 298 299 300 301 302 303 304 305 306 307 307 308 308 308 308 308 308 309 309 310 310 311 311 311 310 310 310 310 309 309 309 309 308 308 308 308 308 309 309 310 310 311 311 311 310 310 309 309 308 308 308 308 307 307 307 307 307 307 306 306 306 305 305 305 304
242 246 250 256 261 266 269 271 273 274 274 275 275 277 278 280 281 282 284 286 287 287 287 286 287 289 290 291 292 293 294 295 296 296 296 296 297 298 299 301 302 304 305 306 307 308 308 309 309 310 310 310 310 309 310 310 310 311 311 311 311 310 310 310 310 310 310 309 309 309 308 308 308 308 308 309 310 310 311 311 311 310 310 309 309 308 308 308 308 308 307 307 307 307 307 306 306 306 306 305 305 304 304
242 247 251 256 261 264 267 270 273 274 275 277 277 278 279 280 281 282 283 285 286 287 287 286 287 288 290 291 292 294 295 296 296 297 297 297 298 300 301 303 304 305 307 308 308 309 310 310 310 311 311 310 310 310 311 311 311 312 312 311 311 311 311 310 310 310 310 309 309 308 308 307 308 308 309 310 310 311 311 311 310 310 309 309 309 308 308 308 308 308 308 308 307 307 307 307 306 306 306 305 305 305 304
243 247 251 256 261 264 267 269 273 275 277 278 279 280 281 281 282 282 283 284 285 286 287 287 287 288 289 291 292 293 294 295 296 297 298 299 300 301 303 304 305 306 307 308 309 309 310 311 311 311 311 311 311 311 312 312 313 313 313 312 312 311 311 311 311 310 309 308 307 307 307 307 308 309 310 310 311 311 311 310 310 309 309 309 309 309 309 309 309 309 308 308 308 307 307 307 306 306 306 305 305 305 304
245 248 252 257 260 264 267 270 273 276 278 280 281 281 282 282 282 283 283 284 284 286 286 287 288 288 289 290 292 293 294 295 296 297 298 300 301 302 303 304 305 306 307 308 309 310 311 311 312 312 312 312 312 312 313 313 314 314 313 313 312 312 311 310 310 308 307 306 306 306 306 307 309 310 311 311 311 311 310 310 310 310 310 310 310 310 310 310 309 309 309 308 308 308 308 307 307 306 306 306 305 305 304
247 250 253 257 260 263 267 270 274 277 279 281 282 282 283 283 283 283 284 284 285 286 287 287 289 289 290 290 291 293 294 296 297 298 299 299 300 301 302 303 304 305 307 308 309 310 311 312 312 312 312 312 312 312 313 314 314 313 313 312 311 310 309 309 308 306 305 305 305 306 307 309 310 311 312 312 311 311 311 311 311 311 311 311 311 311 311 310 310 310 309 309 309 308 308 308 307 307 306 306 305 305 304
249 251 254 256 259 263 267 271 274 277 280 281 282 283 283 283 283 284 284 285 285 286 287 288 289 290 290 291 292 293 295 296 297 298 298 299 300 301 301 302 304 306 308 309 310 310 311 312 312 312 311 311 311 311 312 312 312 311 310 309 309 308 308 307 306 306 305 305 306 308 309 311 312 313 313 312 312 312 312 312 312 312 312 312 312 312 311 311 311 310 310 309 309 309 309 308 308 307 307 306 306 305 305
249 251 253 255 259 263 266 271 274 277 279 281 281 282 282 283 284 284 285 285 286 287 288 289 289 289 290 292 293 295 296 297 298 298 298 299 300 301 302 303 305 307 309 310 310 310 311 311 311 310 309 308 308 309 309 309 309 308 308 308 309 309 309 308 308 307 307 308 309 310 312 313 314 314 314 314 314 314 314 313 313 313 313 313 312 312 312 312 311 311 310 310 310 309 309 308 308 307 307 306 306 305 305
250 251 252 255 259 263 268 271 274 276 278 280 281 281 282 283 284 285 285 286 287 288 289 290 290 290 290 291 293 295 297 298 299 299 299 299 299 300 302 303 304 306 308 309 309 309 309 309 308 307 306 305 306 306 307 307 308 309 310 311 312 312 312 311 310 310 310 310 311 313 314 315 315 315 315 315 315 315 314 314 314 314 313 313 313 312 312 312 311 311 311 311 310 310 309 309 308 308 307 307 306 305 305
251 252 253 256 260 264 268 271 274 276 278 279 280 281 282 283 284 285 286 288 289 290 290 291 291 291 291 292 294 296 297 298 299 299 299 300 299 300 300 299 300 301 303 304 305 305 306 306 306 305 304 304 305 307 308 310 312 313 314 315 315 315 314 313 312 311 311 312 313 314 315 316 316 316 316 316 315 315 315 314 314 314 314 313 313 313 312 312 312 311 311 311 310 310 309 309 308 308 307 307 306 306 305
251 253 255 258 262 265 268 272 275 277 279 280 281 282 283 284 285 286 287 288 289 290 290 290 292 293 294 294 295 296 297 298 299 299 298 299 301 302 301 300 298 297 298 299 301 302 303 304 305 305 306 307 308 311 313 314 316 317 317 317 317 316 314 313 313 313 313 314 315 316 316 316 317 316 316 316 315 315 315 315 314 314 314 314 313 313 313 313 312 312 312 311 311 311 310 310 309 309 308 307 307 306 305
251 253 256 259 263 266 270 273 276 278 279 281 282 283 283 284 285 286 287 288 289 290 290 289 290 292 295 295 296 297 298 298 298 299 299 300 301 302 303 302 301 300 299 298 299 301 303 304 306 308 310 312 313 314 316 317 318 318 318 318 317 316 315 314 314 314 314 315 316 316 317 317 317 316 316 315 315 315 315 315 315 315 315 314 314 314 314 314 313 313 313 312 312 311 311 310 309 309 308 308 307 306 305
252 254 257 261 264 268 271 274 277 278 280 281 282 283 284 285 286 287 288 289 290 291 291 292 291 291 292 294 296 296 297 298 299 299 300 301 302 303 303 305 307 309 308 307 306 305 306 307 309 312 314 315 316 317 318 318 319 319 319 319 318 317 316 315 315 315 315 316 316 317 317 317 316 316 316 316 315 316 316 316 315 315 315 315 315 315 315 315 314 314 313 313 312 311 311 310 310 309 309 308 307 307 306
253 256 259 262 265 269 272 275 277 279 280 281 282 283 284 285 286 287 289 290 291 292 293 293 293 292 292 293 293 294 295 297 299 301 302 301 305 309 310 311 312 313 313 313 313 313 312 313 314 316 317 317 318 319 320 320 321 321 320 320 319 318 318 317 316 316 316 317 317 317 317 317 317 316 316 316 316 316 316 316 316 316 316 316 316 316 316 315 315 314 314 313 312 311 311 310 310 310 310 309 308 308 307
255 258 261 264 267 270 272 275 277 279 280 281 282 283 284 285 286 288 289 291 292 294 294 294 294 294 293 294 294 295 295 299 302 304 305 307 310 314 316 316 316 315 315 316 317 318 318 318 319 320 320 321 321 322 322 323 323 323 322 322 321 320 319 318 317 317 317 318 318 318 318 318 317 317 317 317 317 317 317 317 317 317 317 317 317 317 317 316 315 315 314 313 312 312 312 311 311 312 311 311 310 309 309
258 260 263 266 268 270 273 275 277 278 279 280 281 283 284 286 287 289 291 292 294 295 295 295 295 295 295 295 296 297 298 301 305 307 310 314 316 317 319 319 320 321 320 320 320 320 320 321 321 322 323 323 324 324 325 325 325 324 324 324 323 322 321 319 319 318 319 319 319 319 319 319 319 318 318 318 318 318 318 318 318 318 318 318 318 318 317 316 316 315 314 314 313 313 313 314 314 314 314 313 312 312 311
259 262 265 267 269 272 273 275 276 277 278 279 281 283 284 287 289 291 292 294 295 296 297 297 297 297 297 296 296 298 302 304 306 310 315 318 319 320 321 322 322 321 322 321 321 321 321 322 322 323 324 324 325 326 326 327 327 326 326 326 325 324 322 321 320 320 320 321 321 321 320 320 320 319 319 319 319 319 320 320 319 319 319 319 318 318 317 317 316 316 315 315 315 316 316 316 316 316 316 315 315 314 314
261 264 266 269 271 273 274 275 276 277 278 279 281 283 285 288 290 292 293 294 295 296 297 298 298 298 298 299 299 300 305 307 309 312 318 319 319 320 321 322 322 322 322 322 322 322 322 323 323 323 323 324 325 326 327 328 328 327 327 327 326 325 324 323 322 321 322 322 322 322 321 321 321 321 321 321 321 321 321 321 321 320 320 319 319 318 318 317 317 317 317 317 318 318 318 318 318 318 318 317 317 317 316
263 265 268 270 271 273 274 275 276 276 277 279 281 284 286 288 291 293 294 295 295 297 298 299 299 299 301 303 303 304 308 309 311 315 320 320 320 320 321 321 322 322 323 323 323 323 323 323 323 323 323 324 325 326 328 328 328 327 327 327 327 326 325 324 323 322 323 323 323 323 322 322 322 322 322 322 322 322 322 322 321 321 320 320 320 319 319 319 319 319 319 319 320 320 320 320 320 320 320 319 319 319 318
264 266 268 270 271 273 273 274 275 276 277 279 282 285 287 289 292 294 295 295 296 298 300 300 301 303 305 307 308 309 311 311 313 318 321 320 320 320 320 321 321 322 322 322 322 322 322 323 323 323 324 324 325 326 327 328 327 327 327 327 327 327 326 325 324 323 323 324 324 324 323 323 323 323 323 323 323 323 323 322 322 322 321 321 321 321 321 321 321 321 321 321 321 321 321 321 321 321 321 321 320 320 320
264 266 268 270 271 272 273 273 274 275 277 280 283 286 289 291 293 294 295 295 296 298 300 301 304 307 310 312 313 313 313 315 319 322 322 319 319 319 319 320 321 321 322 322 322 322 322 322 322 323 323 324 324 325 327 327 327 326 327 327 327 327 326 325 324 324 324 324 324 324 324 324 324 324 324 324 324 324 324 323 323 323 322 322 322 323 323 323 323 322 322 322 322 322 322 322 322 322 322 322 322 321 320